Content
SEND FEEDBACK

Daily
Averages
Monthly
Summary
United States of America

NEW YORK - CENTRAL PARK, NEW YORK


Home > North America > United States > New York
Elevation: 14 feet     Latitude: 40 47N     Longitude: 073 58W

WEATHER
 
SELECT A DAY
Number of Records: 148,014;   Date Range: 11/1/95 - 7/22/14
 
SHARE

PRINT THIS DATA

[ ← Previous Day ]
WEATHER ALMANAC - SEPTEMBER 8, 2013
[ Next Day → ]
[ °C ]   °F
Weather ElementAverageHighLow
Temperature69.4 °F81 °F (12:51 pm) (11:51 am)
Dewpoint49.3 °F60.1 °F (12:51 pm) (7:00 pm)
Humidity48.9 %63 % (5:51 am)28 % (6:51 pm)
Barometer29.90 in30.09 in (11:51 pm)29.83 in (10:51 am)
Wind Speed6.3 mph11.5 mph (8:51 pm)
Wind Gust21.9 mph (2:51 pm)
Weather ElementAverage
Visibility10 mi
Wind DirectionE (86.1 °)

Weather ElementTotal
Precipitation---
Heating Degree Days24.5 (Base 65)
Averaged from 23 records on September 8, 2013
WEATHER CONDITIONS BREAKOUT
WIND DIRECTION BREAKOUT
WEATHER BY HOUR - SEPTEMBER 8, 2013
[ °C ]   °F
Local TimeTemperatureDewpointHumidityBarometerVisibilityWind DirectionWind SpeedGust SpeedPrecipitationEventsConditions
1:51 AM71.1 °F52.0 °F51 %29.89 in10.0 miNorthOvercast
2:51 AM69.1 °F54.0 °F58 %29.88 in10.0 miWSW (250°)5.8 mph0.00 inOvercast
3:51 AM69.1 °F55.0 °F61 %29.86 in10.0 miVariable5.8 mphMostly Cloudy
4:51 AM68.0 °F54.0 °F61 %29.84 in10.0 miVariable3.5 mphPartly Cloudy
5:51 AM68.0 °F55.0 °F63 %29.84 in10.0 miVariable3.5 mphScattered Clouds
6:51 AM68.0 °F55.0 °F63 %29.84 in10.0 miVariable4.6 mphMostly Cloudy
7:51 AM69.1 °F55.0 °F61 %29.85 in10.0 miVariable5.8 mphMostly Cloudy
8:51 AM70.0 °F55.9 °F61 %29.84 in10.0 miVariable3.5 mphPartly Cloudy
9:51 AM73.0 °F57.9 °F59 %29.85 in10.0 miNorthClear
10:51 AM75.9 °F59.0 °F56 %29.83 in10.0 miVariable5.8 mphClear
11:51 AM0.0 °F0.0 °F29.83 in10.0 miWNW (300°)6.9 mph16.1 mphPartly Cloudy
12:51 PM81.0 °F60.1 °F49 %29.83 in10.0 miVariable4.6 mphMostly Cloudy
1:51 PM80.1 °F59.0 °F48 %29.83 in10.0 miVariable4.6 mphMostly Cloudy
2:51 PM80.1 °F55.0 °F42 %29.84 in10.0 miNW (310°)9.2 mph21.9 mphMostly Cloudy
3:51 PM80.1 °F54.0 °F40 %29.86 in10.0 miNorth (360°)9.2 mphScattered Clouds
4:51 PM79.0 °F51.1 °F38 %29.87 in10.0 miNW (310°)8.1 mph19.6 mphClear
5:51 PM78.1 °F43.0 °F29 %29.91 in10.0 miNorth (350°)8.1 mphClear
6:51 PM75.0 °F39.9 °F28 %29.94 in10.0 miVariable5.8 mphClear
7:51 PM73.0 °F41.0 °F31 %29.97 in10.0 miVariable3.5 mphClear
8:51 PM70.0 °F45.0 °F41 %30.02 in10.0 miNE (50°)11.5 mphClear
9:51 PM68.0 °F44.1 °F42 %30.04 in10.0 miVariable4.6 mphClear
10:51 PM66.0 °F45.0 °F47 %30.07 in10.0 miVariable6.9 mphClear
11:51 PM64.9 °F44.1 °F47 %30.09 in10.0 miNE (50°)10.4 mph17.3 mphClear
Hourly data recorded from KNYC, located miles away from New York - Central Park, New York







STORIES FROM OUR PARTNERS